RS-30
1 32953U 08025A 12005.57660263 .00000010 00000-0 00000 0 0 4074
2 32953 082.5009 036.8820 0017766 308.0602 051.8878 12.43019456164239
TACSAT-3
1 35001U 09028A 12004.47116260 .00079615 00000-0 72147-3 0 08308
2 35001 040.4515 019.4920 0006009 229.5406 130.4897 15.66981221148420
PHARMSAT
1 35002U 09028B 12004.42047042 .00046047 00000-0 52329-3 0 07677
2 35002 040.4681 021.2838 0010560 280.6576 079.3052 15.61397965148400
HAWKSAT1
1 35003U 09028C 11276.79285837 .02274821 58283-2 19360-2 0 8114
2 35003 040.4398 174.3672 0011414 274.3918 085.3844 16.13812532134570
CP6
1 35004U 09028D 11247.64656856 .16152067 73217-5 10011-2 0 7842
2 35004 040.4403 342.9642 0002956 038.0069 322.2231 16.41039951130139
METEOR-M
1 35865U 09049A 12005.74947673 -.00000001 00000-0 19277-4 0 414
2 35865 098.6796 062.9573 0002531 148.9326 211.1997 14.21852991119373
RS-38
1 35869U 09049E 12005.93461897 .00000040 00000-0 37811-4 0 346
2 35869 098.6762 063.1586 0004698 155.4697 204.6706 14.22048168119411
ARISSAT1
1 37772U 98067CK 12004.04884568 .13494171 12416-4 77857-3 0 4794
2 37772 051.6129 213.1240 0007478 255.9283 104.1611 16.41716225 24077
JUGNU
1 37839U 11058B 12005.93060571 .00000620 00000-0 19019-3 0 626
2 37839 019.9635 267.2409 0018930 224.3163 135.5678 14.12014815 12147
SRMSAT
1 37841U 11058D 12005.90498162 .00000264 00000-0 00000 0 0 627
2 37841 019.9707 269.0773 0012160 199.3803 160.6195 14.10105714 12112
RAX-2
1 37853U 11061D 12005.90651690 .00004042 00000-0 33446-3 0 612
2 37853 101.7078 332.0065 0252358 095.8575 267.1447 14.78362744 10250
AUBIESAT
1 37854U 11061E 12005.82910208 .00004226 00000-0 34410-3 0 646
2 37854 101.7099 331.9514 0254196 095.7566 267.2674 14.78598485 10236
HRBE
1 37855U 11061F 12005.89855686 .00004011 00000-0 32747-3 0 634
2 37855 101.7109 332.0507 0254354 095.3538 267.6695 14.78541060 10249
